DateTimeUTC,F1_A11,F1_S11,BsB_S11,BsG_S11,BsR_S11,BbsB_S11,BbsG_S11,BbsR_S11,BaB_A11,BaG_A11,BaR_A11,Tu_S11,T_S11,Uu_S11,U_S11,P_S11,T1_A11
2021-08-13T12:00:00Z,00000200,20000000,,,,,,,-000.30,-000.12,-000.07,18.3,24.8,07.7,05.2,0674.4,30.9
2021-08-13T12:01:00Z,00000200,20000000,,,,,,,0000.02,-000.16,-000.04,18.2,24.8,07.7,05.2,0674.4,30.9
2021-08-13T12:02:00Z,00000200,20000000,,,,,,,0000.13,0000.23,0000.24,18.2,24.8,07.8,05.2,0674.4,30.9
2021-08-13T12:03:00Z,00000200,60000000,,,,,,,0000.57,0000.57,0000.30,18.2,24.8,07.8,05.2,0674.4,30.9
2021-08-13T12:04:00Z,00000200,40000000,0004.45,0003.58,0002.27,0000.82,0000.72,0000.31,0001.44,0001.14,0001.32,18.3,24.7,07.9,05.4,0675.3,30.8
2021-08-13T12:05:00Z,00000200,00000000,0004.03,0003.35,0002.32,0000.24,0000.43,0000.09,0001.13,0000.87,0000.60,18.4,24.6,07.9,05.4,0675.4,30.8
2021-08-13T12:06:00Z,00000200,00000000,0004.83,0003.37,0002.55,0000.93,0000.66,0000.47,0001.06,0001.15,0000.64,18.4,24.6,08.0,05.4,0675.4,30.8
2021-08-13T12:07:00Z,00000200,00000000,0004.24,0003.56,0002.32,0000.83,0000.27,0000.41,0001.20,0001.24,0000.89,18.4,24.6,08.0,05.4,0675.4,30.8
2021-08-13T12:08:00Z,00000200,00000000,0003.87,0003.16,0002.37,0000.95,0000.60,0000.66,0001.14,0000.99,0000.80,18.4,24.6,08.0,05.5,0675.3,30.8
2021-08-13T12:09:00Z,00000200,00000000,0004.08,0003.02,0002.05,0000.36,0000.74,0000.31,0000.69,0000.88,0000.62,18.4,24.6,08.0,05.5,0675.3,30.8
2021-08-13T12:10:00Z,00000200,00000000,0003.71,0003.33,0002.22,0000.88,0000.51,0000.06,0001.11,0000.69,0000.82,18.4,24.5,08.0,05.5,0675.4,30.8
2021-08-13T12:11:00Z,00000200,00000000,0003.95,0003.58,0002.07,0001.02,0000.35,0000.46,0001.12,0001.10,0000.79,18.4,24.6,08.0,05.5,0675.3,30.8
2021-08-13T12:12:00Z,00000200,00000000,0004.02,0002.99,0002.31,0000.71,0000.69,0000.15,0001.20,0000.89,0000.78,18.3,24.6,08.1,05.5,0675.4,30.8
2021-08-13T12:13:00Z,00000200,00000000,0004.37,0003.46,0002.20,0000.97,0000.46,0000.15,0000.59,0000.85,0000.45,18.3,24.6,08.1,05.5,0675.3,30.8
2021-08-13T12:14:00Z,00000200,00000000,0004.77,0003.71,0002.50,0000.29,0000.33,0000.52,0001.39,0001.26,0001.16,18.3,24.6,08.2,05.6,0675.3,30.8
2021-08-13T12:15:00Z,00000200,00000000,0003.60,0003.26,0002.51,0000.48,0000.50,0000.29,0001.24,0000.92,0000.62,18.3,24.6,08.2,05.6,0675.3,30.8
2021-08-13T12:16:00Z,00000200,00000000,0003.95,0003.66,0002.57,0000.16,0000.23,0000.55,0001.19,0001.07,0000.82,18.3,24.6,08.2,05.6,0675.3,30.8
2021-08-13T12:17:00Z,00000200,00000000,0004.99,0003.83,0002.98,0000.45,0000.62,0000.64,0000.78,0001.07,0000.83,18.3,24.5,08.2,05.6,0675.3,30.8
2021-08-13T12:18:00Z,00000200,00000000,0004.47,0003.88,0002.70,0000.87,0000.56,0000.24,0001.19,0001.07,0000.93,18.3,24.5,08.3,05.7,0675.3,30.9
2021-08-13T12:19:00Z,00000200,00000000,0005.58,0004.31,0003.15,0000.67,0000.50,0000.69,0001.55,0001.43,0000.96,18.3,24.5,08.3,05.7,0675.3,30.9
2021-08-13T12:20:00Z,00000200,00000000,0004.39,0004.19,0003.00,0000.77,0000.75,0000.21,0001.39,0001.48,0001.23,18.3,24.5,08.2,05.6,0675.3,30.8
2021-08-13T12:21:00Z,00000200,00000000,0004.49,0004.46,0003.30,0001.03,0000.49,0000.40,0001.46,0001.09,0000.94,18.3,24.5,08.3,05.7,0675.3,30.8
2021-08-13T12:22:00Z,00000200,00000000,0004.89,0004.46,0003.08,0000.66,0001.10,0000.74,0001.73,0001.44,0001.02,18.3,24.5,08.3,05.7,0675.3,30.8
2021-08-13T12:23:00Z,00000200,00000000,0005.81,0004.52,0002.87,0000.64,0000.56,-000.06,0000.81,0001.24,0001.10,18.3,24.5,08.3,05.7,0675.3,30.8
2021-08-13T12:24:00Z,00000200,00000000,0004.77,0004.49,0002.95,0001.39,0000.51,0000.48,0001.40,0001.19,0000.76,18.3,24.5,08.5,05.8,0675.3,30.8
2021-08-13T12:25:00Z,00000200,00000000,0006.21,0004.96,0003.31,0000.43,0000.59,0000.54,0001.69,0001.39,0001.24,18.3,24.5,08.3,05.7,0675.3,30.8
2021-08-13T12:26:00Z,00000200,00000000,0006.28,0005.14,0003.39,0000.86,0000.64,0000.22,0001.58,0001.48,0001.29,18.3,24.5,08.4,05.7,0675.3,30.8
2021-08-13T12:27:00Z,00000200,00000000,0005.97,0004.41,0003.11,0000.25,0000.38,0000.29,0001.23,0001.16,0001.03,18.3,24.5,08.5,05.8,0675.3,30.8
2021-08-13T12:28:00Z,00000200,00000000,0005.42,0004.75,0003.42,0000.80,0000.61,0000.42,0001.48,0001.25,0000.73,18.3,24.5,08.5,05.8,0675.3,30.8
2021-08-13T12:29:00Z,00000200,00000000,0005.37,0004.48,0003.21,0000.45,0000.59,0000.56,0001.15,0001.31,0001.09,18.3,24.5,08.3,05.7,0675.3,30.8
2021-08-13T12:30:00Z,00000200,00000000,0004.98,0004.68,0003.10,0000.93,0000.71,0000.41,0001.92,0001.36,0001.25,18.3,24.5,08.5,05.8,0675.3,30.8
2021-08-13T12:31:00Z,00000200,00000000,0005.67,0004.86,0003.06,0001.16,0000.96,0000.40,0001.38,0001.21,0001.07,18.3,24.5,08.5,05.8,0675.3,30.8
2021-08-13T12:32:00Z,00000200,00000000,0006.28,0003.97,0003.03,0001.66,0000.70,0000.44,0001.06,0001.44,0000.74,18.3,24.5,08.4,05.7,0675.3,30.8
2021-08-13T12:33:00Z,00000200,00000000,0005.83,0004.60,0003.11,0001.02,0000.46,0000.32,0001.86,0001.31,0000.93,18.3,24.5,08.5,05.8,0675.3,30.8
2021-08-13T12:34:00Z,00000200,00000000,0005.33,0004.71,0003.63,0000.71,0000.77,0000.58,0001.33,0001.14,0001.09,18.3,24.5,08.5,05.8,0675.3,30.8
2021-08-13T12:35:00Z,00000200,00000000,0006.03,0004.83,0003.26,0000.85,0000.54,0000.35,0001.41,0001.44,0001.04,18.3,24.4,08.5,05.8,0675.3,30.8
2021-08-13T12:36:00Z,00000200,00000000,0006.89,0004.69,0003.37,0000.66,0000.31,0000.57,0001.48,0001.41,0001.62,18.3,24.4,08.5,05.8,0675.3,30.8
2021-08-13T12:37:00Z,00000200,00000000,0006.39,0004.79,0003.35,0001.54,0000.54,0000.51,0001.78,0001.50,0000.76,18.3,24.4,08.5,05.8,0675.3,30.8
2021-08-13T12:38:00Z,00000200,00000000,0005.68,0004.83,0003.26,0000.77,0000.54,0000.40,0001.53,0001.71,0001.23,18.3,24.4,08.6,05.9,0675.3,30.8
2021-08-13T12:39:00Z,00000200,00000000,0006.32,0004.86,0003.41,0000.47,0000.62,0000.51,0001.63,0001.53,0001.22,18.3,24.4,08.6,05.9,0675.3,30.8
2021-08-13T12:40:00Z,00000200,00000000,0005.11,0005.20,0003.60,0000.71,0000.75,0000.57,0001.75,0000.93,0001.06,18.3,24.4,08.6,05.9,0675.3,30.8
2021-08-13T12:41:00Z,00000200,00000000,0005.75,0005.24,0003.59,0000.59,0000.67,0000.80,0001.55,0001.95,0001.25,18.3,24.4,08.6,05.9,0675.3,30.8
2021-08-13T12:42:00Z,00000200,00000000,0006.00,0005.20,0003.83,0001.61,0000.55,0000.66,0001.45,0001.42,0001.32,18.3,24.4,08.6,05.9,0675.2,30.8
2021-08-13T12:43:00Z,00000200,00000000,0006.70,0005.49,0003.30,0000.50,0000.66,0000.62,0001.84,0001.57,0001.26,18.3,24.5,08.6,05.9,0675.3,30.9
2021-08-13T12:44:00Z,00000200,00000000,0005.74,0004.80,0003.42,0000.75,0000.70,0000.55,0001.81,0001.51,0000.98,18.4,24.5,08.6,06.0,0675.3,30.9
2021-08-13T12:45:00Z,00000200,00000000,0006.97,0005.66,0004.17,0001.00,0000.60,0000.55,0001.42,0001.64,0001.28,18.5,24.6,08.6,05.9,0675.2,30.9
2021-08-13T12:46:00Z,00000200,00000000,0006.25,0005.42,0003.89,0001.52,0000.66,0000.59,0001.95,0001.33,0001.27,18.5,24.5,08.7,06.0,0675.3,30.9
2021-08-13T12:47:00Z,00000200,00000000,0006.20,0005.97,0003.66,0001.30,0000.72,0000.30,0001.27,0001.63,0001.28,18.5,24.5,08.7,06.0,0675.2,30.9
2021-08-13T12:48:00Z,00000200,00000000,0006.55,0005.87,0003.89,0001.36,0000.40,0000.51,0001.94,0001.65,0001.20,18.6,24.6,08.6,06.0,0675.2,30.9
2021-08-13T12:49:00Z,00000200,00000000,0006.52,0005.94,0004.02,0000.67,0000.95,0000.46,0001.65,0001.77,0001.40,18.5,24.6,08.7,06.0,0675.2,30.9
2021-08-13T12:50:00Z,00000200,00000000,0006.26,0005.61,0003.85,0000.98,0000.72,0000.61,0001.82,0001.59,0001.22,18.5,24.6,08.6,06.0,0675.2,30.9
2021-08-13T12:51:00Z,00000200,00000000,0007.69,0005.39,0003.80,0001.14,0000.73,0000.46,0002.05,0001.78,0001.22,18.5,24.6,08.6,06.0,0675.2,30.9
2021-08-13T12:52:00Z,00000200,00000000,0006.68,0005.75,0003.90,0000.98,0000.87,0000.65,0001.54,0001.54,0001.59,18.5,24.6,08.7,06.0,0675.2,30.9
2021-08-13T12:53:00Z,00000200,00000000,0007.10,0005.62,0003.96,0000.61,0000.43,0000.70,0001.94,0001.82,0001.33,18.5,24.6,08.6,05.9,0675.2,30.9
2021-08-13T12:54:00Z,00000200,00000000,0006.27,0005.63,0004.29,0001.00,0000.57,0000.29,0001.62,0001.39,0001.18,18.5,24.6,08.8,06.0,0675.2,30.9
2021-08-13T12:55:00Z,00000200,00000000,0007.28,0006.12,0003.98,0000.49,0000.70,0000.70,0001.94,0001.90,0001.46,18.5,24.6,08.7,06.0,0675.1,30.9
2021-08-13T12:56:00Z,00000200,00000000,0007.84,0006.28,0004.48,0001.01,0000.51,0000.56,0001.78,0001.52,0001.51,18.5,24.6,08.7,06.0,0675.0,30.9
2021-08-13T12:57:00Z,00000200,40000000,,,,,,,0000.87,0000.62,0000.17,18.5,24.5,08.9,06.1,0675.1,30.9
2021-08-13T12:58:00Z,00000200,60000000,,,,,,,-000.05,0000.19,-000.15,18.3,24.7,08.5,05.7,0674.1,30.9
2021-08-13T12:59:00Z,00000200,20000000,,,,,,,-000.08,-000.38,-000.13,18.3,24.8,08.5,05.7,0674.0,30.9
